Temp
-7 -7 -7 -7 -7 -7 -7 -7 -7 -7 -7 -7 -7 -7 -7 -7 -6 -7 -7 -6 -6 -6 -6 -6 -6 -7 -7 -7 -7 -7 -7 -7 -7
-7 -7 -7 -7 -7 -7 -7 -7 -7 -7 -7 -7 -7 -7 -7 -7 -7 -7 -7 -7 -7 -7 -7 -7 -7 -7 -7 -7 -7 -7 -7 -7 -7
-7 -7 -7 -7 -7 -7 -7 -7 -7 -6 -7 -7 -7 -7 -7 -7 -7 -7 -7 -7 -7 -7 -7 -7 -7 -7 -7 -7 -7 -7 -7 -7 -7
-7 -7 -7 -7 -7 -7 -7 -7 -7 -7 -7 -7 -7 -7 -7 -7 -7 -7 -7 -7 -7 -8 -8 -8 -8 -8 -8 -8 -8 -8 -8 -8 -8
-7 -7 -7 -7 -7 -7 -7 -7 -7 -7 -7 -7 -7 -7 -7 -7 -7 -7 -7 -7 -7 -8 -8 -8 -8 -8 -8 -8 -8 -8 -8 -8 -8
-7 -7 -7 -7 -7 -7 -7 -7 -8 -8 -8 -8 -7 -8 -8 -8 -8 -8 -8 -8 -8 -8 -8 -8 -8 -8 -9 -9 -9 -9 -9 -9 -9
-8 -8 -8 -8 -8 -8 -8 -8 -8 -8 -8 -8 -8 -8 -8 -8 -8 -8 -8 -8 -8 -8 -8 -8 -8 -8 -8 -8 -9 -9 -9 -9 -9
-9 -9 -9 -9 -9 -9 -9 -9 -9 -9 -9 -9 -9 -9 -9 -9 -9 -9 -9 -9 -9 -9 -9 -9 -9 -9 -9 -9 -9 -9 -9 -9 -9
-9 -9 -9 -9 -9 -9 -9 -9 -9 -9 -9 -9 -9 -9 -9 -9 -9 -9 -9 -10 -10 -10 -9 -9 -9 -9 -9 -9 -9 -9 -9 -9 -9
-9 -9 -9 -9 -9 -9 -9 -9 -9 -9 -9 -9 -9 -10 -10 -10 -10 -10 -10 -10 -10 -10 -10 -10 -10 -10 -10 -10 -10 -10 -10 -10 -10
-9 -9 -9 -9 -9 -10 -10 -10 -10 -10 -10 -10 -10 -10 -10 -10 -10 -10 -10 -10 -10 -10 -10 -10 -10 -10 -10 -10 -10 -10 -10 -10 -10
-9 -9 -9 -9 -9 -9 -10 -10 -10 -10 -10 -10 -11 -11 -11 -10 -10 -11 -11 -10 -11 -10 -11 -11 -11 -11 -11 -11 -11 -11 -11 -11 -11
-9 -9 -9 -10 -10 -10 -10 -10 -11 -11 -11 -11 -11 -11 -11 -11 -11 -11 -11 -11 -11 -11 -11 -11 -11 -11 -11 -11 -11 -12 -11 -11 -12
-9 -9 -10 -10 -10 -11 -11 -11 -11 -11 -11 -11 -12 -12 -12 -11 -12 -12 -12 -12 -12 -12 -11 -12 -12 -11 -11 -11 -12 -12 -12 -12 -12
-10 -10 -10 -11 -11 -11 -11 -11 -11 -11 -11 -11 -11 -11 -12 -12 -12 -12 -12 -12 -12 -12 -12 -12 -11 -11 -12 -11 -12 -12 -12 -12 -12
-10 -10 -11 -11 -11 -12 -11 -11 -11 -11 -11 -12 -12 -12 -12 -12 -12 -13 -13 -13 -13 -13 -12 -12 -12 -12 -12 -11 -12 -12 -12 -13 -12
-11 -11 -11 -12 -12 -12 -11 -11 -11 -11 -11 -11 -11 -11 -12 -13 -14 -13 -14 -14 -14 -13 -13 -12 -13 -12 -12 -12 -12 -12 -12 -13 -12
-11 -11 -11 -11 -11 -11 -11 -11 -12 -12 -11 -11 -11 -13 -14 -15 -15 -15 -15 -15 -14 -14 -14 -13 -13 -13 -12 -13 -13 -13 -13 -13 -13
-12 -11 -11 -11 -11 -11 -11 -12 -12 -11 -11 -11 -13 -15 -17 -17 -17 -17 -16 -15 -15 -14 -14 -13 -13 -14 -13 -13 -13 -13 -14 -13 -14
-11 -11 -11 -11 -11 -11 -12 -12 -12 -12 -11 -13 -16 -17 -18 -18 -18 -18 -17 -16 -14 -15 -15 -15 -15 -15 -14 -14 -14 -14 -14 -13 -14
Height
5867 5866 5866 5865 5864 5864 5863 5862 5862 5862 5861 5860 5859 5859 5859 5859 5859 5858 5858 5858 5857 5857 5857 5857 5856 5856 5856 5856 5856 5856 5855 5855 5854
5864 5863 5863 5862 5862 5861 5860 5860 5859 5858 5858 5857 5856 5856 5855 5855 5855 5854 5854 5854 5853 5853 5853 5853 5853 5852 5852 5852 5851 5851 5851 5850 5850
5860 5860 5860 5859 5859 5858 5857 5856 5856 5855 5855 5854 5853 5852 5851 5851 5850 5850 5849 5849 5849 5849 5848 5848 5848 5848 5848 5848 5847 5847 5846 5846 5845
5856 5856 5855 5854 5854 5853 5853 5852 5852 5851 5850 5850 5849 5848 5847 5846 5846 5845 5845 5844 5844 5844 5844 5844 5843 5843 5843 5842 5842 5842 5841 5841 5840
5850 5850 5849 5849 5848 5847 5847 5847 5846 5845 5845 5844 5843 5843 5842 5841 5841 5840 5840 5839 5839 5838 5838 5838 5837 5837 5837 5837 5837 5836 5836 5836 5835
5845 5844 5843 5842 5842 5841 5840 5840 5839 5839 5838 5836 5836 5836 5835 5835 5835 5834 5834 5833 5833 5832 5832 5832 5831 5831 5831 5830 5829 5829 5829 5829 5829
5838 5837 5836 5836 5835 5834 5833 5832 5831 5832 5830 5829 5828 5828 5826 5827 5828 5827 5827 5826 5826 5826 5825 5825 5824 5824 5823 5823 5823 5823 5822 5821 5821
5832 5831 5830 5829 5828 5827 5825 5824 5822 5822 5822 5821 5821 5820 5819 5819 5818 5818 5819 5819 5819 5818 5818 5818 5818 5817 5816 5816 5815 5815 5815 5815 5814
5825 5825 5824 5822 5821 5820 5819 5816 5815 5814 5813 5812 5811 5811 5811 5811 5810 5810 5810 5809 5810 5810 5810 5810 5810 5810 5809 5808 5807 5807 5807 5807 5807
5819 5818 5816 5815 5813 5812 5811 5809 5807 5806 5804 5803 5804 5802 5802 5802 5801 5801 5800 5799 5799 5800 5800 5800 5801 5801 5801 5800 5799 5799 5799 5799 5800
5812 5811 5809 5807 5805 5802 5801 5799 5798 5797 5795 5794 5791 5792 5792 5791 5791 5791 5790 5790 5788 5789 5790 5790 5790 5791 5791 5791 5791 5791 5791 5791 5791
5804 5802 5799 5797 5794 5793 5791 5788 5786 5785 5784 5782 5781 5779 5779 5780 5780 5780 5780 5779 5779 5778 5779 5780 5780 5780 5779 5779 5780 5780 5781 5781 5781
5792 5790 5788 5785 5783 5781 5780 5778 5775 5773 5770 5769 5768 5767 5765 5766 5767 5767 5767 5768 5768 5769 5768 5769 5768 5768 5768 5768 5769 5769 5769 5770 5771
5780 5778 5776 5774 5772 5770 5767 5765 5763 5761 5758 5755 5754 5752 5752 5751 5751 5752 5754 5755 5756 5757 5758 5758 5757 5755 5756 5756 5756 5757 5758 5759 5761
5769 5767 5765 5762 5760 5758 5756 5754 5752 5749 5746 5743 5741 5737 5736 5735 5736 5736 5737 5739 5741 5743 5745 5745 5745 5738 5739 5743 5742 5744 5747 5749 5750
5757 5755 5753 5751 5750 5748 5745 5743 5741 5737 5732 5729 5725 5723 5719 5718 5716 5717 5720 5722 5724 5727 5731 5732 5733 5732 5728 5727 5731 5734 5735 5738 5739
5745 5743 5743 5742 5741 5738 5735 5732 5728 5724 5718 5712 5705 5702 5698 5693 5694 5695 5699 5703 5706 5711 5715 5717 5719 5721 5719 5719 5719 5725 5725 5727 5729
5735 5735 5735 5734 5731 5728 5725 5720 5716 5712 5704 5694 5682 5674 5670 5666 5671 5673 5679 5685 5690 5695 5698 5702 5704 5710 5710 5707 5711 5713 5714 5716 5717
5728 5727 5726 5725 5722 5718 5714 5709 5704 5698 5690 5679 5665 5653 5647 5646 5650 5655 5661 5669 5674 5677 5679 5685 5691 5695 5695 5694 5699 5701 5704 5705 5705
5721 5720 5718 5716 5713 5708 5704 5699 5694 5685 5677 5664 5650 5641 5633 5631 5633 5641 5649 5664 5657 5663 5667 5670 5677 5680 5685 5686 5687 5688 5692 5693 5694
Wind_Speed
12 12 12 12 13 14 15 16 16 16 15 17 22 24 23 22 22 22 22 21 21 21 20 19 19 19 19 19 19 20 20 21 22
16 16 17 17 17 18 18 19 19 19 19 18 19 19 21 24 27 25 24 25 24 23 23 23 23 23 23 23 23 23 24 24 24
22 21 22 23 23 23 24 24 25 25 25 24 23 23 23 22 23 25 28 29 28 27 26 26 25 24 24 25 26 26 27 27 27
27 27 28 29 29 30 30 30 30 31 30 29 28 28 27 26 25 25 25 26 27 28 29 29 29 29 29 28 27 27 28 28 28
30 30 31 31 32 33 34 34 35 36 36 36 35 33 32 32 31 29 28 29 29 28 29 30 31 31 32 32 32 31 30 30 31
33 34 34 34 35 36 36 36 36 36 37 38 39 39 39 37 35 35 34 34 33 32 31 31 32 33 33 34 34 34 34 35 34
33 34 36 36 37 38 39 40 40 40 40 40 40 40 41 42 41 40 38 38 37 37 36 35 34 34 34 34 35 35 35 34 34
30 31 31 32 34 35 36 37 39 39 39 42 43 43 43 43 42 42 42 43 42 41 40 40 39 37 37 36 36 37 36 37 36
31 32 32 33 34 35 36 38 39 40 40 40 41 41 42 45 47 47 46 46 45 45 44 43 42 41 40 40 39 39 38 37 36
33 34 35 36 38 38 39 41 42 44 45 46 44 44 44 44 45 46 48 51 49 48 47 46 46 45 44 43 42 41 40 39 37
37 39 40 42 43 46 47 48 49 50 52 52 53 52 50 49 49 48 47 46 49 49 49 47 47 47 47 48 47 45 43 41 39
42 44 46 47 48 50 51 54 55 55 57 57 58 59 58 57 55 53 51 50 47 47 46 48 49 49 49 51 51 49 46 42 39
48 48 50 51 51 51 52 52 54 55 58 60 60 61 62 62 61 60 57 54 52 48 47 45 47 48 51 52 52 48 45 43 42
52 51 50 49 49 50 51 51 52 52 54 56 58 61 64 66 65 65 63 59 55 53 49 48 48 50 52 52 53 51 47 44 44
50 50 51 52 50 45 43 45 48 49 53 57 60 63 64 65 66 68 67 65 62 58 55 53 50 51 56 58 51 51 48 44 45
51 49 46 42 38 41 45 47 52 55 58 63 66 68 71 72 72 68 68 68 66 63 59 59 59 53 57 44 43 39 39 45 40
46 40 35 35 40 44 49 53 55 58 63 66 74 78 75 73 71 72 68 68 69 66 64 64 62 55 45 39 34 39 41 44 41
31 32 35 39 45 48 53 54 58 59 63 71 79 77 70 63 64 67 68 65 66 67 67 65 66 55 43 35 40 38 41 47 43
34 36 39 43 47 50 52 54 54 58 64 68 69 63 56 54 54 60 60 61 61 58 64 73 68 62 66 58 55 50 47 47 48
34 37 38 43 46 46 49 48 49 51 52 56 51 52 49 47 48 45 52 41 46 64 69 53 62 61 63 63 55 50 51 50 51
Wind_Direction
291 289 290 288 285 285 286 286 283 283 282 278 273 269 269 269 269 271 271 272 274 273 270 267 266 266 266 267 269 269 269 270 272
281 281 280 280 282 283 283 283 283 283 282 282 281 281 277 272 268 268 268 268 269 272 274 273 268 265 264 264 264 264 265 267 268
280 281 283 283 282 281 280 280 281 282 283 282 281 279 277 278 280 274 268 267 268 268 268 269 272 273 271 271 269 268 268 269 270
278 279 279 279 279 278 278 279 280 280 280 279 277 276 276 275 273 275 276 274 273 272 271 268 268 269 269 270 270 272 273 274 274
279 279 277 277 277 277 277 276 277 278 279 279 277 275 275 273 273 271 269 269 271 272 271 271 269 268 268 269 270 272 273 274 276
279 278 278 277 276 276 276 275 275 276 276 275 276 277 275 272 270 269 269 267 267 267 267 269 271 271 270 268 268 269 270 271 272
276 276 277 278 277 276 277 277 276 275 275 275 274 274 275 274 271 269 267 266 267 267 266 265 266 267 270 272 273 271 271 270 271
280 281 281 280 280 281 282 282 282 281 279 277 274 274 272 273 274 272 270 268 268 266 266 266 266 266 267 269 269 270 271 272 273
284 283 282 282 282 283 283 282 282 282 281 281 280 279 277 274 271 272 273 272 269 268 267 266 266 266 267 268 268 269 270 271 272
282 283 284 283 283 280 279 278 279 280 281 281 279 279 278 276 275 274 271 270 270 269 267 267 267 267 267 266 267 268 270 271 270
285 284 283 282 280 280 279 277 277 276 277 277 278 276 274 273 273 271 271 270 270 269 269 269 268 267 267 267 266 267 268 267 268
283 282 281 279 278 277 277 279 279 278 277 276 275 276 275 273 271 270 268 269 268 269 267 266 266 267 265 265 265 265 265 264 263
281 279 278 278 278 279 279 279 279 280 280 280 279 276 274 272 271 269 268 267 267 265 268 267 266 265 265 264 263 259 258 259 262
282 282 282 281 281 282 282 279 278 279 279 279 278 278 276 273 270 268 266 265 265 264 262 264 266 265 265 268 256 255 257 259 263
284 284 284 285 284 281 280 280 280 281 281 282 282 281 279 276 272 267 264 262 260 260 260 261 264 265 257 266 245 253 254 258 265
286 285 284 280 277 283 289 283 284 286 286 287 286 284 281 276 271 267 263 261 258 257 257 258 258 267 255 248 248 250 254 260 266
285 283 277 278 288 290 290 289 291 292 292 292 291 288 282 275 266 262 258 256 258 256 254 254 255 256 262 248 251 248 256 261 267
277 277 279 286 292 292 296 295 295 295 296 297 296 292 286 272 262 258 254 253 255 257 255 254 254 254 247 251 259 265 259 268 277
283 284 286 289 295 296 299 298 297 301 303 301 298 293 285 277 262 252 251 251 249 249 257 247 252 252 254 264 269 278 271 271 272
286 287 291 294 295 299 298 301 303 308 310 317 305 296 287 272 266 257 251 248 260 252 251 253 251 256 257 263 270 264 270 272 274